When you browse on this site, cookies collect data to enhance your experience and personalize the content and advertising you see.
Visit our Privacy Policy to learn more. By continuing to use the site, you agree to this use of cookies and data.
  • In Portugal
  • List of Countries
  • For 7 days
  • Water Temperature
  • Weather Map
  • Weather Widgets
  • user-avatar
    Login

    Hourly Weather Kavarna

    Today, 1 April, Wednesday

    Time Temperature Precipitation Wind Pressure Humidity
    00:00 +1°C° 0 mm 8 mps 764 mmHg 51%
    01:00 +1°C° 0 mm 8 mps 764 mmHg 52%
    02:00 0°C° 0 mm 8 mps 764 mmHg 52%
    03:00 0°C° 0 mm 8 mps 764 mmHg 56%
    04:00 0°C° 0 mm 9 mps 764 mmHg 60%
    05:00 0°C° 0 mm 9 mps 764 mmHg 64%
    06:00 0°C° 0 mm 9 mps 764 mmHg 63%
    07:00 +1°C° 0 mm 8 mps 764 mmHg 62%
    08:00 +2°C° 0 mm 9 mps 764 mmHg 62%
    09:00 +2°C° 0 mm 9 mps 764 mmHg 65%
    10:00 +2°C° 0 mm 8 mps 764 mmHg 68%
    11:00 +2°C° 0 mm 8 mps 764 mmHg 71%
    12:00 +4°C° 0 mm 8 mps 764 mmHg 68%
    13:00 +4°C° 0 mm 8 mps 764 mmHg 65%
    14:00 +5°C° 0 mm 8 mps 764 mmHg 61%
    15:00 +4°C° 0 mm 8 mps 764 mmHg 62%
    16:00 +4°C° 0 mm 8 mps 763 mmHg 62%
    17:00 +3°C° 0 mm 7 mps 763 mmHg 62%
    18:00 +3°C° 0 mm 7 mps 763 mmHg 64%
    19:00 +2°C° 0 mm 7 mps 763 mmHg 67%
    20:00 0°C° 0 mm 7 mps 763 mmHg 69%
    21:00 0°C° 0 mm 7 mps 763 mmHg 70%
    22:00 +1°C° 0 mm 6 mps 763 mmHg 71%
    23:00 +1°C° 0 mm 6 mps 763 mmHg 72%

    Tomorrow, 2 April, Thursday

    Time Temperature Precipitation Wind Pressure Humidity
    00:00 +1°C° 0 mm 6 mps 763 mmHg 71%
    01:00 +1°C° 0 mm 6 mps 763 mmHg 71%
    02:00 +1°C° 0 mm 6 mps 762 mmHg 71%
    03:00 +1°C° 0 mm 6 mps 762 mmHg 71%
    04:00 +1°C° 0 mm 6 mps 762 mmHg 71%
    05:00 +1°C° 0 mm 6 mps 762 mmHg 72%
    06:00 +2°C° 0 mm 6 mps 762 mmHg 70%
    07:00 +4°C° 0 mm 6 mps 762 mmHg 69%
    08:00 +5°C° 0 mm 7 mps 762 mmHg 67%
    09:00 +5°C° 0 mm 7 mps 762 mmHg 65%
    10:00 +5°C° 0 mm 7 mps 762 mmHg 63%
    11:00 +6°C° 0 mm 7 mps 762 mmHg 60%
    12:00 +6°C° 0 mm 7 mps 761 mmHg 57%
    13:00 +6°C° 0 mm 7 mps 761 mmHg 54%
    14:00 +8°C° 0 mm 7 mps 761 mmHg 51%
    15:00 +6°C° 0 mm 7 mps 760 mmHg 52%
    16:00 +6°C° 0 mm 7 mps 760 mmHg 54%
    17:00 +5°C° 0 mm 7 mps 760 mmHg 56%
    18:00 +4°C° 0 mm 6 mps 760 mmHg 61%
    19:00 +3°C° 0 mm 6 mps 760 mmHg 67%
    20:00 +2°C° 0 mm 5 mps 760 mmHg 73%
    21:00 +2°C° 0 mm 5 mps 760 mmHg 75%
    22:00 +3°C° 0 mm 4 mps 760 mmHg 78%
    23:00 +3°C° 0 mm 4 mps 760 mmHg 80%

    Day after tomorrow, 3 April, Friday

    Time Temperature Precipitation Wind Pressure Humidity
    00:00 +1°C° 0 mm 4 mps 760 mmHg 80%
    01:00 +1°C° 0 mm 4 mps 760 mmHg 80%
    02:00 +1°C° 0 mm 4 mps 760 mmHg 80%
    03:00 +1°C° 0 mm 3 mps 760 mmHg 79%
    04:00 +1°C° 0 mm 3 mps 760 mmHg 78%
    05:00 +1°C° 0 mm 3 mps 760 mmHg 77%
    06:00 +2°C° 0 mm 3 mps 760 mmHg 71%
    07:00 +5°C° 0 mm 2 mps 760 mmHg 65%
    08:00 +6°C° 0 mm 2 mps 761 mmHg 59%
    09:00 +7°C° 0 mm 2 mps 761 mmHg 54%
    10:00 +8°C° 0 mm 2 mps 761 mmHg 50%
    11:00 +11°C° 0 mm 1 mps 761 mmHg 45%
    12:00 +10°C° 0 mm 2 mps 761 mmHg 46%
    13:00 +10°C° 0 mm 2 mps 761 mmHg 46%
    14:00 +11°C° 0 mm 3 mps 760 mmHg 47%
    15:00 +10°C° 0 mm 3 mps 760 mmHg 51%
    16:00 +8°C° 0 mm 4 mps 760 mmHg 55%
    17:00 +8°C° 0 mm 4 mps 760 mmHg 59%
    18:00 +7°C° 0 mm 4 mps 760 mmHg 66%
    19:00 +6°C° 0 mm 4 mps 761 mmHg 73%
    20:00 +5°C° 0 mm 5 mps 761 mmHg 80%
    21:00 +5°C° 0 mm 5 mps 761 mmHg 82%
    22:00 +5°C° 0 mm 5 mps 761 mmHg 84%
    23:00 +5°C° 0 mm 5 mps 762 mmHg 86%

    4 April, Saturday

    Time Temperature Precipitation Wind Pressure Humidity
    00:00 +5°C° 0 mm 4 mps 762 mmHg 88%
    01:00 +5°C° 0 mm 4 mps 762 mmHg 90%
    02:00 +5°C° 0 mm 3 mps 761 mmHg 92%
    03:00 +5°C° 0 mm 3 mps 762 mmHg 92%
    04:00 +5°C° 0 mm 3 mps 762 mmHg 91%
    05:00 +5°C° 0 mm 3 mps 762 mmHg 91%
    06:00 +7°C° 0 mm 2 mps 762 mmHg 87%
    07:00 +8°C° 0 mm 2 mps 762 mmHg 82%
    08:00 +9°C° 0 mm 2 mps 763 mmHg 78%
    09:00 +10°C° 0 mm 2 mps 763 mmHg 76%
    10:00 +12°C° 0 mm 2 mps 763 mmHg 73%
    11:00 +12°C° 0 mm 3 mps 763 mmHg 70%
    12:00 +13°C° 0 mm 2 mps 763 mmHg 68%
    13:00 +13°C° 0 mm 2 mps 763 mmHg 66%
    14:00 +13°C° 0 mm 2 mps 763 mmHg 64%
    15:00 +13°C° 0 mm 2 mps 763 mmHg 65%
    16:00 +11°C° 0 mm 3 mps 763 mmHg 65%
    17:00 +11°C° 0 mm 3 mps 763 mmHg 66%
    18:00 +10°C° 0 mm 3 mps 764 mmHg 69%
    19:00 +9°C° 0 mm 3 mps 764 mmHg 73%
    20:00 +8°C° 0 mm 3 mps 765 mmHg 77%
    21:00 +8°C° 0 mm 3 mps 765 mmHg 77%
    22:00 +7°C° 0 mm 3 mps 765 mmHg 77%
    23:00 +6°C° 0 mm 4 mps 765 mmHg 78%

    5 April, Sunday

    Time Temperature Precipitation Wind Pressure Humidity
    00:00 +6°C° 0 mm 4 mps 765 mmHg 78%
    01:00 +6°C° 0 mm 5 mps 765 mmHg 78%
    02:00 +6°C° 0 mm 5 mps 765 mmHg 79%
    03:00 +5°C° 0 mm 6 mps 765 mmHg 78%
    04:00 +5°C° 0 mm 7 mps 765 mmHg 78%
    05:00 +5°C° 0 mm 7 mps 766 mmHg 78%
    06:00 +6°C° 0 mm 8 mps 766 mmHg 72%
    07:00 +7°C° 0 mm 9 mps 766 mmHg 67%
    08:00 +8°C° 0 mm 9 mps 766 mmHg 62%
    09:00 +9°C° 0 mm 10 mps 766 mmHg 62%
    10:00 +11°C° 0 mm 11 mps 766 mmHg 61%
    11:00 +12°C° 0 mm 11 mps 767 mmHg 61%
    12:00 +10°C° 0 mm 12 mps 766 mmHg 61%
    13:00 +10°C° 0 mm 13 mps 766 mmHg 61%
    14:00 +10°C° 0 mm 14 mps 766 mmHg 62%
    15:00 +10°C° 0 mm 14 mps 766 mmHg 59%
    16:00 +9°C° 0 mm 14 mps 766 mmHg 57%
    17:00 +8°C° 0 mm 14 mps 766 mmHg 54%
    18:00 +8°C° 0 mm 13 mps 766 mmHg 52%
    19:00 +7°C° 0 mm 13 mps 767 mmHg 51%
    20:00 +7°C° 0 mm 13 mps 767 mmHg 49%
    21:00 +7°C° 0 mm 13 mps 768 mmHg 51%
    22:00 +5°C° 0 mm 13 mps 768 mmHg 53%
    23:00 +5°C° 0 mm 13 mps 768 mmHg 55%

    6 April, Monday

    Time Temperature Precipitation Wind Pressure Humidity
    00:00 +5°C° 0 mm 14 mps 769 mmHg 56%
    01:00 +4°C° 0 mm 14 mps 769 mmHg 57%
    02:00 +4°C° 0 mm 14 mps 769 mmHg 58%
    03:00 +3°C° 0 mm 14 mps 770 mmHg 56%
    04:00 +3°C° 0 mm 14 mps 771 mmHg 55%
    05:00 +1°C° 0 mm 14 mps 771 mmHg 54%
    06:00 +3°C° 0 mm 14 mps 772 mmHg 53%
    07:00 +3°C° 0 mm 14 mps 773 mmHg 51%
    08:00 +3°C° 0 mm 14 mps 773 mmHg 50%
    09:00 +4°C° 0 mm 14 mps 774 mmHg 49%
    10:00 +5°C° 0 mm 14 mps 774 mmHg 47%
    11:00 +5°C° 0 mm 14 mps 775 mmHg 46%
    12:00 +5°C° 0 mm 14 mps 775 mmHg 45%
    13:00 +5°C° 0 mm 13 mps 775 mmHg 45%
    14:00 +5°C° 0 mm 13 mps 775 mmHg 44%
    15:00 +5°C° 0 mm 13 mps 775 mmHg 44%
    16:00 +4°C° 0 mm 12 mps 775 mmHg 45%
    17:00 +4°C° 0 mm 12 mps 775 mmHg 45%
    18:00 +3°C° 0 mm 12 mps 776 mmHg 47%
    19:00 +2°C° 0 mm 11 mps 776 mmHg 49%
    20:00 +2°C° 0 mm 11 mps 776 mmHg 50%
    21:00 +2°C° 0 mm 11 mps 777 mmHg 51%
    22:00 +2°C° 0 mm 10 mps 777 mmHg 52%
    23:00 +2°C° 0 mm 10 mps 777 mmHg 52%
    Show more